Hourly Weather Kozlivs'ke

Today, 30 October, Friday

Time Temperature Precipitation Wind Pressure Humidity
00:00 +12°C° 0 mm 1 mps 753 mmHg 81%
01:00 +12°C° 0 mm 2 mps 753 mmHg 81%
02:00 +12°C° 0 mm 2 mps 753 mmHg 81%
03:00 +10°C° 0 mm 2 mps 753 mmHg 81%
04:00 +10°C° 0 mm 2 mps 753 mmHg 81%
05:00 +10°C° 0 mm 2 mps 752 mmHg 82%
06:00 +10°C° 0 mm 2 mps 753 mmHg 80%
07:00 +10°C° 0 mm 2 mps 753 mmHg 79%
08:00 +10°C° 0 mm 2 mps 753 mmHg 77%
09:00 +13°C° 0 mm 2 mps 753 mmHg 73%
10:00 +14°C° 0 mm 2 mps 753 mmHg 68%
11:00 +14°C° 0 mm 3 mps 753 mmHg 64%
12:00 +14°C° 0 mm 3 mps 753 mmHg 62%
13:00 +16°C° 0 mm 3 mps 753 mmHg 59%
14:00 +16°C° 0 mm 3 mps 753 mmHg 57%
15:00 +16°C° 0 mm 3 mps 753 mmHg 58%
16:00 +15°C° 0 mm 2 mps 753 mmHg 59%
17:00 +15°C° 0 mm 2 mps 753 mmHg 60%
18:00 +15°C° 0 mm 2 mps 753 mmHg 62%
19:00 +14°C° 0 mm 2 mps 753 mmHg 63%
20:00 +14°C° 0 mm 2 mps 753 mmHg 64%
21:00 +13°C° 0 mm 2 mps 753 mmHg 67%
22:00 +13°C° 0 mm 1 mps 753 mmHg 70%
23:00 +12°C° 0 mm 1 mps 753 mmHg 73%

Tomorrow, 31 October, Saturday

Time Temperature Precipitation Wind Pressure Humidity
00:00 +12°C° 0 mm 2 mps 753 mmHg 75%
01:00 +12°C° 0 mm 2 mps 753 mmHg 77%
02:00 +12°C° 0 mm 2 mps 753 mmHg 79%
03:00 +11°C° 0 mm 3 mps 753 mmHg 81%
04:00 +10°C° 0 mm 3 mps 753 mmHg 82%
05:00 +10°C° 0 mm 3 mps 753 mmHg 84%
06:00 +10°C° 0 mm 3 mps 753 mmHg 84%
07:00 +10°C° 0 mm 3 mps 753 mmHg 85%
08:00 +10°C° 0 mm 3 mps 753 mmHg 85%
09:00 +11°C° 0 mm 3 mps 753 mmHg 81%
10:00 +12°C° 0 mm 3 mps 752 mmHg 77%
11:00 +13°C° 0 mm 3 mps 752 mmHg 73%
12:00 +13°C° 0.1 mm 3 mps 752 mmHg 73%
13:00 +12°C° 0.1 mm 4 mps 752 mmHg 73%
14:00 +12°C° 0.1 mm 4 mps 752 mmHg 73%
15:00 +12°C° 0.1 mm 4 mps 752 mmHg 76%
16:00 +11°C° 0.1 mm 4 mps 752 mmHg 79%
17:00 +11°C° 0.1 mm 4 mps 752 mmHg 81%
18:00 +10°C° 0 mm 4 mps 752 mmHg 83%
19:00 +10°C° 0 mm 4 mps 752 mmHg 84%
20:00 +10°C° 0 mm 4 mps 752 mmHg 85%
21:00 +10°C° 0 mm 4 mps 751 mmHg 85%
22:00 +10°C° 0 mm 4 mps 751 mmHg 86%
23:00 +10°C° 0 mm 4 mps 751 mmHg 86%

Day after tomorrow, 1 November, Sunday

Time Temperature Precipitation Wind Pressure Humidity
00:00 +10°C° 0 mm 4 mps 751 mmHg 85%
01:00 +10°C° 0 mm 4 mps 751 mmHg 85%
02:00 +10°C° 0 mm 4 mps 751 mmHg 85%
03:00 +10°C° 0.2 mm 4 mps 751 mmHg 86%
04:00 +10°C° 0.2 mm 4 mps 751 mmHg 87%
05:00 +10°C° 0.2 mm 4 mps 751 mmHg 88%
06:00 +10°C° 0.6 mm 4 mps 751 mmHg 88%
07:00 +10°C° 0.6 mm 4 mps 750 mmHg 89%
08:00 +10°C° 0.6 mm 4 mps 750 mmHg 90%
09:00 +10°C° 0.2 mm 3 mps 750 mmHg 88%
10:00 +10°C° 0.2 mm 3 mps 751 mmHg 87%
11:00 +10°C° 0.2 mm 3 mps 751 mmHg 85%
12:00 +10°C° 0.1 mm 3 mps 750 mmHg 84%
13:00 +11°C° 0.1 mm 3 mps 750 mmHg 84%
14:00 +11°C° 0.1 mm 4 mps 750 mmHg 83%
15:00 +10°C° 0.2 mm 4 mps 750 mmHg 84%
16:00 +10°C° 0.2 mm 4 mps 750 mmHg 85%
17:00 +10°C° 0.2 mm 4 mps 750 mmHg 86%
18:00 +9°C° 0.2 mm 5 mps 750 mmHg 87%
19:00 +9°C° 0.2 mm 5 mps 750 mmHg 87%
20:00 +9°C° 0.2 mm 6 mps 750 mmHg 87%
21:00 +9°C° 0.4 mm 6 mps 750 mmHg 88%
22:00 +8°C° 0.4 mm 6 mps 750 mmHg 88%
23:00 +8°C° 0.4 mm 6 mps 750 mmHg 88%

2 November, Monday

Time Temperature Precipitation Wind Pressure Humidity
00:00 +8°C° 0.7 mm 6 mps 750 mmHg 88%
01:00 +8°C° 0.7 mm 6 mps 750 mmHg 88%
02:00 +8°C° 0.7 mm 5 mps 750 mmHg 88%
03:00 +8°C° 0.5 mm 5 mps 750 mmHg 88%
04:00 +8°C° 0.5 mm 5 mps 751 mmHg 89%
05:00 +8°C° 0.5 mm 5 mps 751 mmHg 89%
06:00 +8°C° 0.6 mm 5 mps 751 mmHg 89%
07:00 +8°C° 0.6 mm 5 mps 751 mmHg 89%
08:00 +8°C° 0.6 mm 5 mps 752 mmHg 89%
09:00 +8°C° 0.4 mm 5 mps 752 mmHg 88%
10:00 +8°C° 0.4 mm 5 mps 753 mmHg 87%
11:00 +8°C° 0.4 mm 5 mps 753 mmHg 87%
12:00 +9°C° 0.1 mm 5 mps 753 mmHg 86%
13:00 +9°C° 0.1 mm 5 mps 754 mmHg 85%
14:00 +9°C° 0.1 mm 5 mps 754 mmHg 84%
15:00 +9°C° 0 mm 5 mps 754 mmHg 84%
16:00 +10°C° 0 mm 4 mps 754 mmHg 84%
17:00 +10°C° 0 mm 4 mps 755 mmHg 84%
18:00 +10°C° 0 mm 3 mps 755 mmHg 85%
19:00 +10°C° 0 mm 3 mps 755 mmHg 85%
20:00 +9°C° 0 mm 3 mps 756 mmHg 86%
21:00 +9°C° 0 mm 3 mps 756 mmHg 86%
22:00 +9°C° 0 mm 3 mps 756 mmHg 86%
23:00 +9°C° 0 mm 3 mps 756 mmHg 86%

3 November, Tuesday

Time Temperature Precipitation Wind Pressure Humidity
00:00 +9°C° 0 mm 2 mps 756 mmHg 87%
01:00 +9°C° 0 mm 2 mps 756 mmHg 88%
02:00 +9°C° 0 mm 2 mps 756 mmHg 88%
03:00 +9°C° 0.1 mm 2 mps 757 mmHg 89%
04:00 +9°C° 0.1 mm 2 mps 757 mmHg 90%
05:00 +10°C° 0.1 mm 1 mps 757 mmHg 91%
06:00 +10°C° 0.2 mm 1 mps 757 mmHg 90%
07:00 +10°C° 0.2 mm 1 mps 757 mmHg 90%
08:00 +9°C° 0.2 mm 0 mps 758 mmHg 90%
09:00 +10°C° 0 mm 0 mps 758 mmHg 87%
10:00 +10°C° 0 mm 0 mps 758 mmHg 84%
11:00 +11°C° 0 mm 0 mps 758 mmHg 81%
12:00 +11°C° 0 mm 0 mps 758 mmHg 79%
13:00 +12°C° 0 mm 1 mps 758 mmHg 77%
14:00 +13°C° 0 mm 1 mps 758 mmHg 74%
15:00 +12°C° 0 mm 1 mps 758 mmHg 77%
16:00 +12°C° 0 mm 1 mps 758 mmHg 81%
17:00 +11°C° 0 mm 1 mps 758 mmHg 84%
18:00 +11°C° 0.1 mm 1 mps 758 mmHg 85%
19:00 +11°C° 0.1 mm 1 mps 759 mmHg 86%
20:00 +11°C° 0.1 mm 1 mps 759 mmHg 87%
21:00 +10°C° 0 mm 1 mps 759 mmHg 87%
22:00 +10°C° 0 mm 1 mps 759 mmHg 88%
23:00 +10°C° 0 mm 1 mps 759 mmHg 88%

4 November, Wednesday

Time Temperature Precipitation Wind Pressure Humidity
00:00 +10°C° 0 mm 1 mps 759 mmHg 89%
01:00 +9°C° 0 mm 1 mps 759 mmHg 90%
02:00 +8°C° 0 mm 2 mps 759 mmHg 90%
03:00 +8°C° 0 mm 2 mps 760 mmHg 91%
04:00 +8°C° 0 mm 2 mps 760 mmHg 91%
05:00 +7°C° 0 mm 2 mps 760 mmHg 91%
06:00 +8°C° 0 mm 3 mps 760 mmHg 90%
07:00 +8°C° 0 mm 3 mps 761 mmHg 88%
08:00 +8°C° 0 mm 3 mps 761 mmHg 87%
09:00 +10°C° 0 mm 3 mps 761 mmHg 80%
10:00 +11°C° 0 mm 3 mps 761 mmHg 73%
11:00 +13°C° 0 mm 3 mps 761 mmHg 66%
12:00 +14°C° 0 mm 3 mps 761 mmHg 63%
13:00 +14°C° 0 mm 3 mps 761 mmHg 60%
14:00 +14°C° 0 mm 3 mps 761 mmHg 58%
15:00 +13°C° 0 mm 3 mps 761 mmHg 63%
16:00 +12°C° 0 mm 3 mps 761 mmHg 69%
17:00 +11°C° 0 mm 3 mps 762 mmHg 74%
18:00 +11°C° 0 mm 3 mps 762 mmHg 77%
19:00 +11°C° 0 mm 3 mps 762 mmHg 79%
20:00 +11°C° 0 mm 3 mps 763 mmHg 82%
21:00 +10°C° 0 mm 3 mps 763 mmHg 84%
22:00 +10°C° 0 mm 3 mps 763 mmHg 87%
23:00 +9°C° 0 mm 3 mps 763 mmHg 90%
Show more